sat.trackr.live / text

‹ back to catalog

STARLINK-31766

NORAD 59723 · 2024-088R

PAYLOAD ACTIVE UNKNOWN

§ Identity

Operator
Country
US
Launch date
2024-05-10
Launch site
AFWTR
Launch vehicle
Mass (kg)
RCS (m²)

Purposes: comms

External: N2YO · Heavens-Above · Gunter

§ Orbital elements

Epoch: 2026-09-21T10:08:59.856864Z

Period
93.85 min
Inclination
53.1589°
Eccentricity
0.0001104
Mean motion
15.34390789 rev/d
Perigee alt
462.0 km
Apogee alt
463.5 km
Semi-major
6,840.9 km
B*
1.9728e-5
RAAN
309.0621°
Arg perigee
77.9772°
Mean anomaly
282.1354°
Rev number
13,367

§ Raw data

STARLINK-317661 59723U 24088R   26264.42291501  .00000290  00000+0  19728-4 0  99932 59723  53.1589 309.0621 0001104  77.9772 282.1354 15.34390789133679

JSON: /api/v1/satellites/59723 · /tle

For live sub-satellite position, see the globe view (requires WebGL).

§ Visibility from observer

Set your observer location to see the next 7 days of passes ≥ 10°. The values pass through the URL so the page stays shareable.

No JS? Fill the form by hand. The geolocation button needs JavaScript.